DMC3-FM1

Last updated on Fri Jun 19 2026 20:04:07 GMT+0000 (Coordinated Universal Time)

1 40715U 15032A 26170.56254411 .00000054 00000+0 12168-4 0 9992 2 40715 97.6452 35.6438 0006841 53.5747 306.6099 14.85738973590261
UTC large
Height (km)
Speed (km/s)
/
Latitude / Longitude
Inclination (degrees)
Orbital Period (minutes)
Azimuth
Elevation
Range (km)
Doppler Factor

Next 0 passes for location: London (51.5072 / 0.1276)

Sorry there are no passes over London.